When you browse on this site, cookies collect data to enhance your experience and personalize the content and advertising you see.
Visit our Privacy Policy to learn more. By continuing to use the site, you agree to this use of cookies and data.
  • în România
  • Lista ţărilor
  • Pe 7 zile
  • Temperatura apei
  • Hartă satelitară
  • Meteo pe hartă
  • Widget-uri
  • user-avatar
    Intrare

    Meteo pe oră la Zubchaninovka

    Astăzi, 21 Mai, Marţi

    Timp Temperatura Precipitaţii Vânt Presiune Umiditate
    00:00 +5°C° 0 mm 2 m/s 760 mmHg 72%
    01:00 +5°C° 0 mm 2 m/s 760 mmHg 74%
    02:00 +5°C° 0 mm 2 m/s 760 mmHg 76%
    03:00 +5°C° 0 mm 2 m/s 760 mmHg 82%
    04:00 +5°C° 0 mm 3 m/s 760 mmHg 79%
    05:00 +7°C° 0 mm 3 m/s 760 mmHg 76%
    06:00 +7°C° 0 mm 4 m/s 761 mmHg 73%
    07:00 +8°C° 0.1 mm 4 m/s 761 mmHg 65%
    08:00 +11°C° 0.1 mm 4 m/s 761 mmHg 57%
    09:00 +12°C° 0 mm 5 m/s 760 mmHg 49%
    10:00 +13°C° 0 mm 5 m/s 760 mmHg 47%
    11:00 +14°C° 0 mm 5 m/s 760 mmHg 45%
    12:00 +14°C° 0 mm 5 m/s 760 mmHg 43%
    13:00 +14°C° 0 mm 5 m/s 760 mmHg 43%
    14:00 +15°C° 0 mm 5 m/s 760 mmHg 42%
    15:00 +15°C° 0 mm 5 m/s 760 mmHg 42%
    16:00 +15°C° 0 mm 4 m/s 760 mmHg 46%
    17:00 +14°C° 0 mm 3 m/s 760 mmHg 50%
    18:00 +14°C° 0 mm 3 m/s 760 mmHg 53%
    19:00 +13°C° 0 mm 3 m/s 760 mmHg 56%
    20:00 +12°C° 0 mm 2 m/s 760 mmHg 58%
    21:00 +10°C° 0 mm 2 m/s 760 mmHg 61%
    22:00 +9°C° 0 mm 2 m/s 760 mmHg 62%
    23:00 +9°C° 0 mm 2 m/s 760 mmHg 64%

    Mâine, 22 Mai, Miercuri

    Timp Temperatura Precipitaţii Vânt Presiune Umiditate
    00:00 +9°C° 0 mm 2 m/s 760 mmHg 65%
    01:00 +8°C° 0 mm 2 m/s 760 mmHg 66%
    02:00 +8°C° 0 mm 2 m/s 760 mmHg 67%
    03:00 +8°C° 0 mm 2 m/s 760 mmHg 68%
    04:00 +9°C° 0 mm 2 m/s 760 mmHg 67%
    05:00 +10°C° 0 mm 2 m/s 760 mmHg 67%
    06:00 +12°C° 0 mm 2 m/s 759 mmHg 66%
    07:00 +12°C° 0.5 mm 1 m/s 759 mmHg 69%
    08:00 +12°C° 0.5 mm 1 m/s 759 mmHg 72%
    09:00 +12°C° 0.5 mm 1 m/s 759 mmHg 75%
    10:00 +12°C° 1.9 mm 1 m/s 758 mmHg 80%
    11:00 +10°C° 1.9 mm 2 m/s 758 mmHg 85%
    12:00 +10°C° 1.9 mm 3 m/s 758 mmHg 90%
    13:00 +11°C° 0.3 mm 3 m/s 757 mmHg 86%
    14:00 +13°C° 0.3 mm 3 m/s 757 mmHg 82%
    15:00 +14°C° 0.3 mm 3 m/s 757 mmHg 78%
    16:00 +15°C° 0.6 mm 2 m/s 756 mmHg 82%
    17:00 +15°C° 0.6 mm 2 m/s 756 mmHg 86%
    18:00 +15°C° 0.6 mm 2 m/s 756 mmHg 89%
    19:00 +14°C° 0.4 mm 2 m/s 756 mmHg 91%
    20:00 +14°C° 0.4 mm 2 m/s 756 mmHg 92%
    21:00 +14°C° 0.4 mm 2 m/s 755 mmHg 94%
    22:00 +14°C° 0 mm 2 m/s 755 mmHg 92%
    23:00 +12°C° 0 mm 3 m/s 755 mmHg 90%

    Poimâine, 23 Mai, Joi

    Timp Temperatura Precipitaţii Vânt Presiune Umiditate
    00:00 +12°C° 0 mm 3 m/s 755 mmHg 88%
    01:00 +12°C° 0 mm 3 m/s 754 mmHg 88%
    02:00 +12°C° 0 mm 4 m/s 754 mmHg 88%
    03:00 +12°C° 0 mm 4 m/s 754 mmHg 88%
    04:00 +13°C° 0 mm 4 m/s 754 mmHg 85%
    05:00 +13°C° 0 mm 4 m/s 754 mmHg 81%
    06:00 +14°C° 0 mm 4 m/s 754 mmHg 77%
    07:00 +15°C° 0 mm 5 m/s 753 mmHg 70%
    08:00 +17°C° 0 mm 6 m/s 753 mmHg 64%
    09:00 +19°C° 0 mm 6 m/s 753 mmHg 57%
    10:00 +20°C° 0 mm 7 m/s 752 mmHg 52%
    11:00 +21°C° 0 mm 7 m/s 752 mmHg 48%
    12:00 +22°C° 0 mm 7 m/s 752 mmHg 43%
    13:00 +22°C° 0 mm 7 m/s 751 mmHg 43%
    14:00 +22°C° 0 mm 7 m/s 751 mmHg 43%
    15:00 +22°C° 0 mm 7 m/s 751 mmHg 43%
    16:00 +22°C° 0 mm 6 m/s 750 mmHg 47%
    17:00 +21°C° 0 mm 6 m/s 750 mmHg 51%
    18:00 +20°C° 0 mm 5 m/s 749 mmHg 55%
    19:00 +19°C° 0 mm 5 m/s 749 mmHg 59%
    20:00 +16°C° 0 mm 5 m/s 749 mmHg 64%
    21:00 +15°C° 0 mm 4 m/s 749 mmHg 68%
    22:00 +15°C° 0 mm 5 m/s 749 mmHg 73%
    23:00 +15°C° 0 mm 5 m/s 748 mmHg 78%

    24 Mai, Vineri

    Timp Temperatura Precipitaţii Vânt Presiune Umiditate
    00:00 +14°C° 0 mm 5 m/s 748 mmHg 84%
    01:00 +14°C° 0.8 mm 4 m/s 748 mmHg 87%
    02:00 +14°C° 0.8 mm 4 m/s 748 mmHg 90%
    03:00 +14°C° 0.8 mm 4 m/s 748 mmHg 93%
    04:00 +13°C° 1.1 mm 5 m/s 749 mmHg 91%
    05:00 +12°C° 1.1 mm 5 m/s 749 mmHg 89%
    06:00 +9°C° 1.1 mm 6 m/s 750 mmHg 87%
    07:00 +10°C° 0 mm 6 m/s 750 mmHg 79%
    08:00 +11°C° 0 mm 6 m/s 751 mmHg 72%
    09:00 +13°C° 0 mm 6 m/s 752 mmHg 64%
    10:00 +13°C° 0 mm 6 m/s 752 mmHg 61%
    11:00 +14°C° 0 mm 6 m/s 752 mmHg 57%
    12:00 +14°C° 0 mm 6 m/s 753 mmHg 53%
    13:00 +14°C° 0 mm 6 m/s 753 mmHg 53%
    14:00 +15°C° 0 mm 6 m/s 754 mmHg 52%
    15:00 +15°C° 0 mm 5 m/s 754 mmHg 52%
    16:00 +14°C° 0 mm 5 m/s 754 mmHg 55%
    17:00 +13°C° 0 mm 5 m/s 755 mmHg 58%
    18:00 +13°C° 0 mm 4 m/s 755 mmHg 60%
    19:00 +11°C° 0 mm 4 m/s 756 mmHg 62%
    20:00 +10°C° 0 mm 3 m/s 756 mmHg 64%
    21:00 +9°C° 0 mm 3 m/s 757 mmHg 66%
    22:00 +8°C° 0 mm 2 m/s 757 mmHg 66%
    23:00 +8°C° 0 mm 2 m/s 758 mmHg 67%

    25 Mai, Sâmbătă

    Timp Temperatura Precipitaţii Vânt Presiune Umiditate
    00:00 +7°C° 0 mm 2 m/s 758 mmHg 67%
    01:00 +7°C° 0 mm 2 m/s 758 mmHg 68%
    02:00 +7°C° 0 mm 1 m/s 759 mmHg 69%
    03:00 +7°C° 0 mm 1 m/s 759 mmHg 69%
    04:00 +8°C° 0 mm 1 m/s 759 mmHg 67%
    05:00 +9°C° 0 mm 1 m/s 760 mmHg 64%
    06:00 +10°C° 0 mm 1 m/s 760 mmHg 61%
    07:00 +11°C° 0 mm 1 m/s 760 mmHg 55%
    08:00 +13°C° 0 mm 1 m/s 760 mmHg 49%
    09:00 +14°C° 0 mm 1 m/s 760 mmHg 43%
    10:00 +15°C° 0 mm 1 m/s 760 mmHg 42%
    11:00 +15°C° 0 mm 1 m/s 760 mmHg 40%
    12:00 +16°C° 0 mm 2 m/s 760 mmHg 39%
    13:00 +17°C° 0 mm 2 m/s 760 mmHg 39%
    14:00 +17°C° 0 mm 2 m/s 760 mmHg 38%
    15:00 +17°C° 0 mm 2 m/s 759 mmHg 38%
    16:00 +17°C° 0 mm 2 m/s 759 mmHg 42%
    17:00 +16°C° 0 mm 2 m/s 759 mmHg 47%
    18:00 +16°C° 0 mm 2 m/s 759 mmHg 51%
    19:00 +14°C° 0 mm 3 m/s 759 mmHg 53%
    20:00 +12°C° 0 mm 3 m/s 759 mmHg 56%
    21:00 +11°C° 0 mm 3 m/s 759 mmHg 58%
    22:00 +10°C° 0 mm 3 m/s 759 mmHg 60%
    23:00 +10°C° 0 mm 3 m/s 759 mmHg 61%

    26 Mai, Duminică

    Timp Temperatura Precipitaţii Vânt Presiune Umiditate
    00:00 +8°C° 0 mm 4 m/s 759 mmHg 63%
    01:00 +8°C° 0 mm 4 m/s 759 mmHg 63%
    02:00 +8°C° 0 mm 4 m/s 759 mmHg 64%
    03:00 +8°C° 0 mm 4 m/s 759 mmHg 65%
    04:00 +8°C° 0 mm 5 m/s 758 mmHg 64%
    05:00 +9°C° 0 mm 5 m/s 758 mmHg 64%
    06:00 +10°C° 0 mm 5 m/s 758 mmHg 63%
    07:00 +13°C° 0 mm 6 m/s 757 mmHg 59%
    08:00 +14°C° 0 mm 6 m/s 757 mmHg 56%
    09:00 +16°C° 0 mm 7 m/s 757 mmHg 53%
    10:00 +17°C° 0 mm 7 m/s 756 mmHg 51%
    11:00 +18°C° 0 mm 7 m/s 756 mmHg 50%
    12:00 +18°C° 0 mm 7 m/s 755 mmHg 48%
    13:00 +18°C° 0.1 mm 7 m/s 755 mmHg 54%
    14:00 +17°C° 0.1 mm 6 m/s 754 mmHg 59%
    15:00 +17°C° 0.1 mm 6 m/s 754 mmHg 64%
    16:00 +16°C° 0 mm 6 m/s 753 mmHg 65%
    17:00 +16°C° 0 mm 6 m/s 753 mmHg 66%
    18:00 +16°C° 0 mm 6 m/s 752 mmHg 67%
    19:00 +15°C° 0.1 mm 6 m/s 752 mmHg 67%
    20:00 +15°C° 0.1 mm 6 m/s 751 mmHg 66%
    21:00 +15°C° 0.1 mm 6 m/s 751 mmHg 66%
    22:00 +16°C° 0.3 mm 6 m/s 750 mmHg 70%
    23:00 +16°C° 0.3 mm 6 m/s 750 mmHg 74%
    Arată mai mult